User: anonymous   Login
Location: Sawmill Trailhead
(33.5800°N, 116.4497°W)
Time: 19:36:25
(UTC-07:00)
Language:

Uosat F - Orbit

View from above orbital plane
View from above orbital plane
View from above satellite
View from above satellite

Ground track
Ground track

The orbit data is extracted from the following two-line orbital elements,

1 21575U 91050B   16236.08499073  .00000012  00000-0  18239-4 0  9993
2 21575  98.7628 239.2690 0008425 105.0215 255.1906 14.40754105318355
Epoch (UTC): 23 August 2016 02:02:23
Eccentricity: 0.0008425
inclination: 98.7628°
perigee height: 750 km
apogee height: 762 km
right ascension of ascending node: 239.2690°
argument of perigee: 105.0215°
revolutions per day: 14.40754105
mean anomaly at epoch: 255.1906°
orbit number at epoch: 31835

The dashed part of the orbit path shows where the satellite is in the earth's shadow,  

DLR